Location: Rochefort
(43.9765°N, 4.6902°E)
Time: 00:09:31
(UTC+00:00)

Daily predictions for brighter satellites

Satellite Brightness Start Highest point End
(mag) Time Altitude Azimuth Time Altitude Azimuth Time Altitude Azimuth
USA 307 3.0 00:07:01 69° NE 00:07:01 69° NE 00:10:45 10° NE
Cosmos 1125 Rocket 3.3 00:07:03 69° SSW 00:07:42 86° WNW 00:12:56 10° NNE
NOSS 3-1 (A) 4.1 00:01:04 10° NW 00:08:40 69° WSW 00:12:10 39° SSE
Cosmos 332 Rocket 4.2 00:09:34 47° ESE 00:09:43 47° ESE 00:14:18 10° NNE
Cosmos 2219 Rocket 3.6 00:09:56 20° W 00:12:45 31° NW 00:17:41 10° N
ATLAS CENTAUR R/B 3.9 00:12:19 10° WNW 00:13:42 14° W 00:13:42 14° W
ERS-2 4.4 00:14:39 10° NNW 00:16:57 16° WNW 00:17:10 16° WNW
CZ-2D R/B 3.9 00:13:40 10° NE 00:17:37 21° E 00:19:19 18° ESE
Okean 1 Rocket 3.0 00:17:27 10° NNW 00:21:50 72° W 00:21:50 72° W
NOSS 2-2 (D) 4.3 00:19:41 10° NW 00:24:58 71° SW 00:27:03 45° SSE
Cosmos 2084 Rocket 4.0 00:26:29 42° ENE 00:26:29 42° ENE 00:29:20 10° NE
Meteor 1-16 Rocket 4.4 00:19:51 10° NNW 00:25:41 59° W 00:26:47 50° SW
Cosmos 1300 2.9 00:23:03 10° N 00:26:26 66° NNE 00:26:26 66° NNE
COSMOS 2455 4.3 00:29:30 22° SE 00:31:00 24° ESE 00:35:39 10° NE
USA 308 3.4 00:36:37 46° WNW 00:37:23 54° NNW 00:41:30 10° NE
SL-16 R/B 3.9 00:32:06 10° SE 00:37:35 34° ENE 00:43:07 10° N
Resurs 1-4 Rocket 3.3 00:35:38 10° NNE 00:40:23 33° E 00:42:05 27° SE
Cosmos 1709 Rocket 3.9 00:36:31 10° N 00:42:38 76° W 00:44:25 48° SSW
SME Rocket 3.8 00:42:21 39° ESE 00:43:37 54° ENE 00:48:40 10° N
Cosmos 2237 Rocket 2.4 00:41:59 43° WSW 00:43:39 62° WNW 00:49:19 10° NNE
SL-14 R/B 4.1 00:44:20 40° WNW 00:44:20 40° WNW 00:47:46 10° N
USA 215 4.4 00:38:44 10° NE 00:44:46 41° NNW 00:50:49 10° W
Meteor 2-5 Rocket 4.0 00:44:49 42° SSE 00:46:36 62° E 00:52:12 10° NNE
Cosmos 1626 4.4 00:47:12 15° WNW 00:47:12 15° WNW 00:49:18 10° NNW
Cosmos 371 Rocket 4.1 00:46:17 35° W 00:47:22 40° WNW 00:51:58 10° N
Cosmos 2315 Rocket 4.0 00:46:21 46° SSW 00:48:25 78° W 00:54:50 10° N
Cosmos 405 Rocket 4.5 00:48:38 21° WNW 00:48:38 21° WNW 00:51:31 10° NNW
ADEOS Rocket 4.3 00:49:33 21° W 00:50:14 21° W 00:54:36 10° NW
COSMOS 2428 4.5 00:47:23 15° W 00:50:46 24° NW 00:55:18 10° N
Thor Agena Rocket 3.6 00:45:46 10° NNE 00:51:04 76° ESE 00:52:27 50° S
ADEOS II 3.9 00:47:59 10° NE 00:52:04 22° E 00:54:40 16° SE
Cosmos 304 Rocket 4.1 00:52:39 47° WSW 00:53:34 55° WNW 00:58:19 10° NNE
Lacrosse 5 1.8 00:54:36 58° SSW 00:55:33 78° SE 01:00:40 10° NE
Cosmos 1943 Rocket 2.6 00:50:01 10° NNW 00:55:40 62° ENE 00:59:33 20° SE
Cosmos 1455 Rocket 2.9 00:53:42 10° N 00:58:11 86° W 00:58:47 67° S
USA 305 4.2 00:57:35 22° WNW 00:59:39 36° NNW 01:03:32 10° NE
Lacrosse 5 rocket 1.2 01:07:18 65° SE 01:07:18 65° SE 01:11:12 10° NE
Cosmos 2297 4.2 01:01:35 10° NNW 01:07:18 60° ENE 01:12:17 13° SE
Cosmos 1025 Rocket 3.0 01:13:12 58° SW 01:13:48 68° W 01:18:07 10° N
Cosmos 1975 Rocket 3.3 01:13:41 49° WSW 01:14:20 54° WNW 01:18:44 10° N
Cosmos 1953 4.3 01:12:11 10° NW 01:14:18 17° WNW 01:14:18 17° WNW
MOZ.5/SAFIR/RUBIN 5/SL-8 3.9 01:14:27 51° SW 01:15:18 60° W 01:20:01 10° NNW
Cosmos 2278 Rocket 3.3 01:11:11 10° NW 01:15:50 27° WSW 01:15:59 27° WSW
USA 267 3.7 01:19:02 35° SSW 01:20:02 37° SW 01:26:01 10° WNW
NPP 3.9 01:14:53 10° NNE 01:20:14 61° E 01:22:35 33° S
Nadezhda 1 Rocket 4.5 01:20:01 24° SSE 01:23:46 56° E 01:29:54 10° NNE
Cosmos 1269 Rocket 4.0 01:18:58 10° NNW 01:24:11 62° WSW 01:25:52 41° SSW
Cosmos 292 Rocket 4.3 01:24:13 34° SSE 01:25:54 51° ESE 01:30:33 10° NNE
Cosmos 2369 Rocket 3.2 01:23:12 10° NNW 01:28:33 44° ENE 01:33:53 10° SE
ERBS 4.5 01:27:26 15° WNW 01:28:40 18° NNW 01:30:53 10° NNE
CZ-4C R/B 4.3 01:25:11 10° WNW 01:30:30 20° WSW 01:31:05 20° WSW
Meteor 2-10 Rocket 4.4 01:27:22 10° NNW 01:32:21 34° W 01:33:35 30° WSW
SL-16 R/B 2.2 01:30:19 37° SW 01:32:38 74° WNW 01:38:20 10° NNE
YAOGAN 11 4.4 01:33:18 24° SSE 01:35:54 67° ENE 01:40:24 10° N
Helios 1A 4.2 01:33:43 13° SE 01:37:14 41° ENE 01:41:14 10° N
CRYOSAT 2 4.4 01:37:03 28° SSE 01:39:39 76° E 01:44:33 10° N
GP-B 4.4 01:36:28 10° NNW 01:40:05 25° WNW 01:40:51 24° W
Cosmos 1544 Rocket 3.8 01:40:30 10° NNW 01:44:48 52° W 01:45:55 40° SW
Cosmos 1455 2.2 01:45:34 10° NNW 01:49:11 55° W 01:49:49 47° SW
NOSS 3-3 (A) 4.4 01:46:46 26° S 01:49:41 48° ESE 01:55:42 10° NE
NOSS 3-3 (C) 4.4 01:46:52 25° S 01:49:48 47° ESE 01:55:47 10° NE
BREEZE-M DEB (TANK) 4.1 01:49:00 28° S 01:50:33 34° SSE 01:53:23 10° E
UNK 3.6 01:50:19 28° S 01:52:42 76° WSW 01:57:20 10° NNW
CZ-2D R/B 2.4 01:52:46 10° N 01:58:00 54° WNW 02:00:38 28° SW
CZ-4 R/B 4.2 01:54:31 10° N 01:58:59 47° WNW 02:00:56 29° SW
Cosmos 2154 Rocket 4.0 01:53:11 10° N 01:59:31 76° W 02:04:12 19° S
Meteor 1-24 Rocket 4.5 01:58:10 25° WSW 02:00:38 37° WNW 02:05:41 10° N
Cosmos 1271 Rocket 2.6 01:57:43 10° NNW 02:01:34 75° W 02:03:19 31° S
SAR-Lupe-2 3.7 02:01:54 10° N 02:05:27 60° WNW 02:06:38 37° SW
GPS 2-04 Rocket1 4.4 02:16:41 15° SSE 02:16:41 15° SSE 02:18:20 10° SE
COSMOS 2455 3.1 02:12:38 23° SW 02:16:26 62° NW 02:22:26 10° NNE
Cosmos 614 Rocket 4.3 02:13:32 10° NNW 02:18:29 46° WSW 02:21:58 19° SSW
Resurs 1-4 Rocket 3.1 02:15:27 10° N 02:20:10 34° WNW 02:23:10 19° WSW
SL-16 R/B 3.0 02:17:05 20° SSW 02:21:02 43° W 02:26:56 10° NNW
Genesis I 3.9 02:17:35 10° NNW 02:21:37 57° NE 02:25:31 10° SE
MOS 1 Rocket 3.6 02:22:26 24° SSW 02:24:23 38° W 02:28:27 10° NNW
Cosmos 1943 3.2 02:21:35 20° SSW 02:25:40 82° ESE 02:31:24 10° NNE
Cosmos 2228 3.1 02:22:53 10° NNW 02:27:11 58° W 02:30:15 18° S
Cosmos 2056 Rocket 4.4 02:22:52 11° S 02:27:37 43° ESE 02:32:36 10° NNE
Cosmos 2237 Rocket 4.5 02:26:26 10° WNW 02:28:57 13° NW 02:31:28 10° NNW
MSX 3.8 02:23:23 10° NNE 02:29:11 83° WNW 02:33:56 16° SSW
IDEFIX/ARIANE 42P 2.7 02:24:07 10° N 02:29:20 62° WNW 02:33:06 19° SSW
DNEPR-1 R/B 3.5 02:29:15 22° SSW 02:31:57 78° ESE 02:36:34 10° NE
ADEOS II 2.5 02:26:56 10° N 02:32:00 49° WNW 02:35:36 19° SW
IRS-1D 3.6 02:31:31 10° NNE 02:36:53 88° WNW 02:41:32 14° SSW
Meteor 2-1 Rocket 4.2 02:32:36 10° NNW 02:38:21 77° W 02:43:57 10° S
Cosmos 1943 Rocket 3.5 02:34:50 10° NW 02:38:52 20° W 02:40:59 17° SW
Lacrosse 5 3.4 02:34:30 10° W 02:38:59 30° NNW 02:43:28 10° NE
Cosmos 2251 Rocket 3.7 02:34:03 10° NNW 02:39:09 50° WSW 02:44:14 10° S
EO 1 Del DPAF 3.8 02:36:12 10° N 02:39:27 36° WNW 02:41:21 20° SW
Cosmos 1328 3.7 02:36:51 17° SSW 02:39:49 78° W 02:43:50 10° N
Cosmos 1190 Rocket 4.5 02:35:18 10° NNW 02:40:35 65° ENE 02:45:51 10° SSE
CZ-2C R/B 3.9 02:37:16 10° NNE 02:41:55 35° E 02:46:26 10° SSE
Cosmos 1825 4.5 02:40:42 10° SE 02:43:36 22° E 02:46:31 10° NE
Cosmos 2218 Rocket 4.1 02:38:12 10° N 02:44:29 81° E 02:50:48 10° S
Lacrosse 5 rocket 3.1 02:43:19 10° W 02:46:36 25° NNW 02:50:02 10° NNE
Cosmos 2058 Rocket 3.4 02:44:50 10° N 02:49:13 69° E 02:53:32 10° SSE
Helios 1B rocket 2.7 02:47:09 10° NNE 02:51:13 67° ESE 02:55:14 10° S
Cosmos 2263 4.3 02:46:38 10° NNW 02:52:12 57° WSW 02:57:48 10° S
Cosmos 1408 2.9 02:49:46 10° S 02:53:22 65° E 02:56:57 10° NNE
SL-24 DEB 4.3 02:55:43 10° S 03:00:28 87° W 03:05:11 10° N
Cosmos 2181 Rocket 4.0 02:54:23 10° SSW 03:00:37 76° W 03:06:48 10° N
SL-19 R/B 4.4 02:55:57 10° NNE 03:02:04 80° WNW 03:07:48 10° SSW
Cosmos 864 Rocket 4.5 02:58:47 10° NNW 03:04:56 75° W 03:11:02 10° S
Cosmos 1892 2.7 03:02:12 10° S 03:05:58 81° E 03:09:44 10° N
Cosmos 1606 Rocket 4.4 03:03:48 10° NNW 03:07:44 32° W 03:11:36 10° SSW
Cosmos 1656 Rocket 4.2 03:04:31 10° NW 03:09:26 36° WSW 03:14:21 10° S
Cosmos 2369 Rocket 3.1 03:07:38 10° NW 03:12:20 28° WSW 03:17:01 10° SSW
Cosmos 1420 Rocket 4.0 03:07:42 10° SSW 03:12:52 86° ESE 03:18:06 10° NNE
Lacrosse 4 Rocket 2.0 03:11:30 10° SSW 03:15:42 56° ESE 03:19:50 10° NE
Meteor 1-29 4.0 03:13:48 10° NNE 03:16:56 43° E 03:20:03 10° S
SL-16 R/B 4.3 03:14:42 10° WNW 03:17:48 15° NW 03:20:55 10° N
Cosmos 407 Rocket 4.0 03:13:49 10° NW 03:18:45 40° WSW 03:23:36 10° S
Intercosmos 25 Rocket 4.3 03:18:02 10° N 03:21:30 54° E 03:26:28 10° SSE
SeaSat 1 3.7 03:18:12 10° NE 03:22:48 38° ESE 03:27:21 10° S
Cosmos 1140 Rocket 4.2 03:19:16 10° NW 03:23:58 34° W 03:28:38 10° SSW
Cosmos 1371 Rocket 4.3 03:19:33 10° SW 03:24:37 55° WNW 03:29:43 10° NNE
In-Cosmos 22 Rocket 4.4 03:23:00 10° S 03:28:49 85° W 03:34:42 10° N
MOS 1-B Rocket 4.1 03:25:01 10° S 03:30:23 48° W 03:35:59 10° NNW
Cosmos 1452 Rocket 4.3 03:27:11 10° S 03:32:18 53° ESE 03:37:25 10° NNE
NOSS 3-4 (A) 4.1 03:25:48 10° NW 03:32:50 81° NE 03:40:48 10° SE
NOSS 3-4 (C) 4.1 03:25:53 10° NW 03:32:54 80° NE 03:40:49 10° SE
